Погода в Добровольске

Россия / Омская область     53°38′47″N   74°15′33″E
темп.,
°C
ветер,
м/с
пор.,
м/с
влажн.,
%
обл.,
%
осадки,
мм/ч
давл.,
гПа
погр.,
м
16 мая, вс
вс1600:00+21зюз474494 1.4 1018150
03:00+19з4858100 0.1 1017173
06:00+18зюз49590 0.1 1017172
09:00+24зсз46392 0.0 1016449
12:00+29з67275 0.0 10151418
15:00+31сз9102199 0.0 10143632
18:00+29ссз8112755 0.0 10142609
21:00+24св474510 0.1 1014143
17 мая, пн
пн1700:00+19ссз356934 0.9 1016103
03:00+18ссв33676 0.0 101631
06:00+18сз11695 0.0 101813
09:00+23зюз334610 0.0 1018447
12:00+29з57325 0.1 10171495
15:00+33зсз691891 0.0 10154226
18:00+32сз9101710 0.0 10143706
21:00+26сз23275 0.0 101316
18 мая, вт
вт1800:00+24з333398 0.0 101331
03:00+22з483695 0.0 1012121
06:00+22з484031 0.0 1011123
09:00+26зсз69335 0.0 1011659
12:00+29сз511264 0.0 10102455
15:00+29сз71024100 0.0 10093287
18:00+23зюз58415 0.1 1007213
21:00+19ссз61260100 1.4 1010751
19 мая, ср
ср1900:00+16зсз247260 2.1 1009142
03:00+15с47805 0.0 1009303
06:00+14ссв7882100 0.1 1011884
09:00+10св91284100 0.9 1014811
12:00+14св8104771 0.9 10171501
15:00+17ссв89315 0.0 10172006
18:00+17ссв89295 0.0 10182091
21:00+14ссв47365 0.0 1020162
20 мая, чт
чт2000:00+11ссв23515 0.0 102138
03:00+10ссз346256 0.0 102267
06:00+9ссв36639 0.0 1023208
09:00+13ссв453673 0.0 1024926
12:00+16ссз45275 0.0 10241572
15:00+18ссз562753 0.0 10221793
18:00+19сз562864 0.0 10211945
21:00+17з343859 0.0 102051